Year,Month,Day,Hour,Minute,Value (Times are PST for temperature in C)
2021,07,02,00,00,16.50
2021,07,02,00,01,16.50
2021,07,02,00,02,16.40
2021,07,02,00,03,16.40
2021,07,02,00,04,16.40
2021,07,02,00,05,16.40
2021,07,02,00,06,16.40
2021,07,02,00,07,16.40
2021,07,02,00,08,16.30
2021,07,02,00,09,16.30
2021,07,02,00,10,16.30
2021,07,02,00,11,16.30
2021,07,02,00,12,16.30
2021,07,02,00,13,16.20
2021,07,02,00,14,16.20
2021,07,02,00,15,16.20
2021,07,02,00,16,16.20
2021,07,02,00,17,16.20
2021,07,02,00,18,16.20
2021,07,02,00,19,16.20
2021,07,02,00,20,16.20
2021,07,02,00,21,16.20
2021,07,02,00,22,16.20
2021,07,02,00,23,16.20
2021,07,02,00,24,16.20
2021,07,02,00,25,16.20
2021,07,02,00,26,16.20
2021,07,02,00,27,16.10
2021,07,02,00,28,16.10
2021,07,02,00,29,16.10
2021,07,02,00,30,16.10
2021,07,02,00,31,16.10
2021,07,02,00,32,16.10
2021,07,02,00,33,16.00
2021,07,02,00,34,16.00
2021,07,02,00,35,16.00
2021,07,02,00,36,16.00
2021,07,02,00,37,16.00
2021,07,02,00,38,16.00
2021,07,02,00,39,16.00
2021,07,02,00,40,16.00
2021,07,02,00,41,16.00
2021,07,02,00,42,16.00
2021,07,02,00,43,16.10
2021,07,02,00,44,16.10
2021,07,02,00,45,16.10
2021,07,02,00,46,16.10
2021,07,02,00,47,16.10
2021,07,02,00,48,16.10
2021,07,02,00,49,16.10
2021,07,02,00,50,16.00
2021,07,02,00,51,16.00
2021,07,02,00,52,16.00
2021,07,02,00,53,16.00
2021,07,02,00,54,16.00
2021,07,02,00,55,16.00
2021,07,02,00,56,16.00
2021,07,02,00,57,16.00
2021,07,02,00,58,16.00
2021,07,02,00,59,16.00
2021,07,02,01,00,16.00
2021,07,02,01,01,16.00
2021,07,02,01,02,15.90
2021,07,02,01,03,15.90
2021,07,02,01,04,15.90
2021,07,02,01,05,15.90
2021,07,02,01,06,15.90
2021,07,02,01,07,15.90
2021,07,02,01,08,15.90
2021,07,02,01,09,15.80
2021,07,02,01,10,15.80
2021,07,02,01,11,15.80
2021,07,02,01,12,15.80
2021,07,02,01,13,15.80
2021,07,02,01,14,15.80
2021,07,02,01,15,15.80
2021,07,02,01,16,15.70
2021,07,02,01,17,15.70
2021,07,02,01,18,15.70
2021,07,02,01,19,15.70
2021,07,02,01,20,15.70
2021,07,02,01,21,15.70
2021,07,02,01,22,15.70
2021,07,02,01,23,15.70
2021,07,02,01,24,15.70
2021,07,02,01,25,15.70
2021,07,02,01,26,15.70
2021,07,02,01,27,15.60
2021,07,02,01,28,15.60
2021,07,02,01,29,15.60
2021,07,02,01,30,15.60
2021,07,02,01,31,15.60
2021,07,02,01,32,15.60
2021,07,02,01,33,15.60
2021,07,02,01,34,15.60
2021,07,02,01,35,15.60
2021,07,02,01,36,15.60
2021,07,02,01,37,15.60
2021,07,02,01,38,15.60
2021,07,02,01,39,15.60
2021,07,02,01,40,15.60
2021,07,02,01,41,15.60
2021,07,02,01,42,15.50
2021,07,02,01,43,15.50
2021,07,02,01,44,15.50
2021,07,02,01,45,15.40
2021,07,02,01,46,15.40
2021,07,02,01,47,15.40
2021,07,02,01,48,15.40
2021,07,02,01,49,15.40
2021,07,02,01,50,15.30
2021,07,02,01,51,15.30
2021,07,02,01,52,15.30
2021,07,02,01,53,15.30
2021,07,02,01,54,15.20
2021,07,02,01,55,15.20
2021,07,02,01,56,15.20
2021,07,02,01,57,15.20
2021,07,02,01,58,15.10
2021,07,02,01,59,15.10
2021,07,02,02,00,15.10
2021,07,02,02,01,15.10
2021,07,02,02,02,15.10
2021,07,02,02,03,15.00
2021,07,02,02,04,15.00
2021,07,02,02,05,15.00
2021,07,02,02,06,15.00
2021,07,02,02,07,15.00
2021,07,02,02,08,15.00
2021,07,02,02,09,14.90
2021,07,02,02,10,14.90
2021,07,02,02,11,14.80
2021,07,02,02,12,14.80
2021,07,02,02,13,14.80
2021,07,02,02,14,14.80
2021,07,02,02,15,14.70
2021,07,02,02,16,14.70
2021,07,02,02,17,14.70
2021,07,02,02,18,14.70
2021,07,02,02,19,14.60
2021,07,02,02,20,14.60
2021,07,02,02,21,14.60
2021,07,02,02,22,14.50
2021,07,02,02,23,14.50
2021,07,02,02,24,14.40
2021,07,02,02,25,14.40
2021,07,02,02,26,14.40
2021,07,02,02,27,14.40
2021,07,02,02,28,14.40
2021,07,02,02,29,14.40
2021,07,02,02,30,14.40
2021,07,02,02,31,14.50
2021,07,02,02,32,14.40
2021,07,02,02,33,14.50
2021,07,02,02,34,14.50
2021,07,02,02,35,14.50
2021,07,02,02,36,14.40
2021,07,02,02,37,14.40
2021,07,02,02,38,14.40
2021,07,02,02,39,14.40
2021,07,02,02,40,14.40
2021,07,02,02,41,14.40
2021,07,02,02,42,14.40
2021,07,02,02,43,14.30
2021,07,02,02,44,14.30
2021,07,02,02,45,14.30
2021,07,02,02,46,14.30
2021,07,02,02,47,14.30
2021,07,02,02,48,14.30
2021,07,02,02,49,14.30
2021,07,02,02,50,14.30
2021,07,02,02,51,14.30
2021,07,02,02,52,14.30
2021,07,02,02,53,14.30
2021,07,02,02,54,14.30
2021,07,02,02,55,14.40
2021,07,02,02,56,14.40
2021,07,02,02,57,14.40
2021,07,02,02,58,14.40
2021,07,02,02,59,14.40
2021,07,02,03,00,14.40
2021,07,02,03,01,14.40
2021,07,02,03,02,14.40
2021,07,02,03,03,14.40
2021,07,02,03,04,14.40
2021,07,02,03,05,14.40
2021,07,02,03,06,14.40
2021,07,02,03,07,14.30
2021,07,02,03,08,14.30
2021,07,02,03,09,14.30
2021,07,02,03,10,14.40
2021,07,02,03,11,14.30
2021,07,02,03,12,14.40
2021,07,02,03,13,14.40
2021,07,02,03,14,14.30
2021,07,02,03,15,14.30
2021,07,02,03,16,14.30
2021,07,02,03,17,14.30
2021,07,02,03,18,14.30
2021,07,02,03,19,14.30
2021,07,02,03,20,14.20
2021,07,02,03,21,14.20
2021,07,02,03,22,14.20
2021,07,02,03,23,14.20
2021,07,02,03,24,14.10
2021,07,02,03,25,14.20
2021,07,02,03,26,14.20
2021,07,02,03,27,14.20
2021,07,02,03,28,14.30
2021,07,02,03,29,14.30
2021,07,02,03,30,14.30
2021,07,02,03,31,14.30
2021,07,02,03,32,14.40
2021,07,02,03,33,14.30
2021,07,02,03,34,14.30
2021,07,02,03,35,14.30
2021,07,02,03,36,14.30
2021,07,02,03,37,14.30
2021,07,02,03,38,14.30
2021,07,02,03,39,14.30
2021,07,02,03,40,14.30
2021,07,02,03,41,14.30
2021,07,02,03,42,14.30
2021,07,02,03,43,14.30
2021,07,02,03,44,14.30
2021,07,02,03,45,14.30
2021,07,02,03,46,14.30
2021,07,02,03,47,14.30
2021,07,02,03,48,14.30
2021,07,02,03,49,14.30
2021,07,02,03,50,14.30
2021,07,02,03,51,14.40
2021,07,02,03,52,14.40
2021,07,02,03,53,14.40
2021,07,02,03,54,14.40
2021,07,02,03,55,14.40
2021,07,02,03,56,14.40
2021,07,02,03,57,14.40
2021,07,02,03,58,14.40
2021,07,02,03,59,14.40
2021,07,02,04,00,14.40
2021,07,02,04,01,14.40
2021,07,02,04,02,14.40
2021,07,02,04,03,14.40
2021,07,02,04,04,14.40
2021,07,02,04,05,14.40
2021,07,02,04,06,14.40
2021,07,02,04,07,14.50
2021,07,02,04,08,14.50
2021,07,02,04,09,14.50
2021,07,02,04,10,14.50
2021,07,02,04,11,14.50
2021,07,02,04,12,14.50
2021,07,02,04,13,14.50
2021,07,02,04,14,14.60
2021,07,02,04,15,14.60
2021,07,02,04,16,14.60
2021,07,02,04,17,14.60
2021,07,02,04,18,14.60
2021,07,02,04,19,14.60
2021,07,02,04,20,14.60
2021,07,02,04,21,14.60
2021,07,02,04,22,14.60
2021,07,02,04,23,14.60
2021,07,02,04,24,14.60
2021,07,02,04,25,14.60
2021,07,02,04,26,14.60
2021,07,02,04,27,14.60
2021,07,02,04,28,14.60
2021,07,02,04,29,14.60
2021,07,02,04,30,14.60
2021,07,02,04,31,14.60
2021,07,02,04,32,14.60
2021,07,02,04,33,14.60
2021,07,02,04,34,14.50
2021,07,02,04,35,14.50
2021,07,02,04,36,14.60
2021,07,02,04,37,14.50
2021,07,02,04,38,14.50
2021,07,02,04,39,14.50
2021,07,02,04,40,14.60
2021,07,02,04,41,14.50
2021,07,02,04,42,14.50
2021,07,02,04,43,14.50
2021,07,02,04,44,14.50
2021,07,02,04,45,14.50
2021,07,02,04,46,14.50
2021,07,02,04,47,14.50
2021,07,02,04,48,14.40
2021,07,02,04,49,14.40
2021,07,02,04,50,14.40
2021,07,02,04,51,14.40
2021,07,02,04,52,14.40
2021,07,02,04,53,14.40
2021,07,02,04,54,14.40
2021,07,02,04,55,14.40
2021,07,02,04,56,14.40
2021,07,02,04,57,14.40
2021,07,02,04,58,14.40
2021,07,02,04,59,14.40
2021,07,02,05,00,14.40
2021,07,02,05,01,14.40
2021,07,02,05,02,14.40
2021,07,02,05,03,14.40
2021,07,02,05,04,14.40
2021,07,02,05,05,14.40
2021,07,02,05,06,14.40
2021,07,02,05,07,14.40
2021,07,02,05,08,14.40
2021,07,02,05,09,14.40
2021,07,02,05,10,14.40
2021,07,02,05,11,14.40
2021,07,02,05,12,14.40
2021,07,02,05,13,14.40
2021,07,02,05,14,14.40
2021,07,02,05,15,14.30
2021,07,02,05,16,14.30
2021,07,02,05,17,14.30
2021,07,02,05,18,14.30
2021,07,02,05,19,14.30
2021,07,02,05,20,14.30
2021,07,02,05,21,14.30
2021,07,02,05,22,14.30
2021,07,02,05,23,14.30
2021,07,02,05,24,14.30
2021,07,02,05,25,14.30
2021,07,02,05,26,14.30
2021,07,02,05,27,14.30
2021,07,02,05,28,14.20
2021,07,02,05,29,14.20
2021,07,02,05,30,14.20
2021,07,02,05,31,14.20
2021,07,02,05,32,14.20
2021,07,02,05,33,14.20
2021,07,02,05,34,14.20
2021,07,02,05,35,14.20
2021,07,02,05,36,14.20
2021,07,02,05,37,14.20
2021,07,02,05,38,14.20
2021,07,02,05,39,14.20
2021,07,02,05,40,14.20
2021,07,02,05,41,14.20
2021,07,02,05,42,14.20
2021,07,02,05,43,14.20
2021,07,02,05,44,14.20
2021,07,02,05,45,14.20
2021,07,02,05,46,14.20
2021,07,02,05,47,14.10
2021,07,02,05,48,14.10
2021,07,02,05,49,14.10
2021,07,02,05,50,14.20
2021,07,02,05,51,14.20
2021,07,02,05,52,14.20
2021,07,02,05,53,14.20
2021,07,02,05,54,14.20
2021,07,02,05,55,14.20
2021,07,02,05,56,14.20
2021,07,02,05,57,14.20
2021,07,02,05,58,14.20
2021,07,02,05,59,14.20
2021,07,02,06,00,14.20
2021,07,02,06,01,14.20
2021,07,02,06,02,14.20
2021,07,02,06,03,14.20
2021,07,02,06,04,14.20
2021,07,02,06,05,14.20
2021,07,02,06,06,14.20
2021,07,02,06,07,14.20
2021,07,02,06,08,14.20
2021,07,02,06,09,14.20
2021,07,02,06,10,14.30
2021,07,02,06,11,14.30
2021,07,02,06,12,14.30
2021,07,02,06,13,14.30
2021,07,02,06,14,14.30
2021,07,02,06,15,14.30
2021,07,02,06,16,14.30
2021,07,02,06,17,14.30
2021,07,02,06,18,14.30
2021,07,02,06,19,14.30
2021,07,02,06,20,14.30
2021,07,02,06,21,14.30
2021,07,02,06,22,14.40
2021,07,02,06,23,14.40
2021,07,02,06,24,14.40
2021,07,02,06,25,14.40
2021,07,02,06,26,14.50
2021,07,02,06,27,14.50
2021,07,02,06,28,14.50
2021,07,02,06,29,14.60
2021,07,02,06,30,14.60
2021,07,02,06,31,14.70
2021,07,02,06,32,14.70
2021,07,02,06,33,14.70
2021,07,02,06,34,14.80
2021,07,02,06,35,14.80
2021,07,02,06,36,14.90
2021,07,02,06,37,14.90
2021,07,02,06,38,14.90
2021,07,02,06,39,14.90
2021,07,02,06,40,15.00
2021,07,02,06,41,14.90
2021,07,02,06,42,14.90
2021,07,02,06,43,14.90
2021,07,02,06,44,14.90
2021,07,02,06,45,14.90
2021,07,02,06,46,14.90
2021,07,02,06,47,14.90
2021,07,02,06,48,14.90
2021,07,02,06,49,14.90
2021,07,02,06,50,14.90
2021,07,02,06,51,14.90
2021,07,02,06,52,14.90
2021,07,02,06,53,14.90
2021,07,02,06,54,14.90
2021,07,02,06,55,14.90
2021,07,02,06,56,15.00
2021,07,02,06,57,15.00
2021,07,02,06,58,15.00
2021,07,02,06,59,15.10
2021,07,02,07,00,15.10
2021,07,02,07,01,15.10
2021,07,02,07,02,15.10
2021,07,02,07,03,15.10
2021,07,02,07,04,15.20
2021,07,02,07,05,15.20
2021,07,02,07,06,15.20
2021,07,02,07,07,15.20
2021,07,02,07,08,15.20
2021,07,02,07,09,15.30
2021,07,02,07,10,15.30
2021,07,02,07,11,15.30
2021,07,02,07,12,15.30
2021,07,02,07,13,15.40
2021,07,02,07,14,15.40
2021,07,02,07,15,15.40
2021,07,02,07,16,15.50
2021,07,02,07,17,15.50
2021,07,02,07,18,15.50
2021,07,02,07,19,15.60
2021,07,02,07,20,15.60
2021,07,02,07,21,15.70
2021,07,02,07,22,15.70
2021,07,02,07,23,15.70
2021,07,02,07,24,15.70
2021,07,02,07,25,15.80
2021,07,02,07,26,15.80
2021,07,02,07,27,15.80
2021,07,02,07,28,15.80
2021,07,02,07,29,15.80
2021,07,02,07,30,15.90
2021,07,02,07,31,15.90
2021,07,02,07,32,15.90
2021,07,02,07,33,16.00
2021,07,02,07,34,16.00
2021,07,02,07,35,16.00
2021,07,02,07,36,16.00
2021,07,02,07,37,16.10
2021,07,02,07,38,16.10
2021,07,02,07,39,16.10
2021,07,02,07,40,16.20
2021,07,02,07,41,16.20
2021,07,02,07,42,16.20
2021,07,02,07,43,16.30
2021,07,02,07,44,16.30
2021,07,02,07,45,16.30
2021,07,02,07,46,16.30
2021,07,02,07,47,16.30
2021,07,02,07,48,16.30
2021,07,02,07,49,16.40
2021,07,02,07,50,16.40
2021,07,02,07,51,16.40
2021,07,02,07,52,16.40
2021,07,02,07,53,16.50
2021,07,02,07,54,16.50
2021,07,02,07,55,16.50
2021,07,02,07,56,16.50
2021,07,02,07,57,16.60
2021,07,02,07,58,16.60
2021,07,02,07,59,16.60
2021,07,02,08,00,16.70
2021,07,02,08,01,16.70
2021,07,02,08,02,16.70
2021,07,02,08,03,16.70
2021,07,02,08,04,16.80
2021,07,02,08,05,16.80
2021,07,02,08,06,16.80
2021,07,02,08,07,16.90
2021,07,02,08,08,16.90
2021,07,02,08,09,17.00
2021,07,02,08,10,17.00
2021,07,02,08,11,17.10
2021,07,02,08,12,17.10
2021,07,02,08,13,17.20
2021,07,02,08,14,17.30
2021,07,02,08,15,17.30
2021,07,02,08,16,17.40
2021,07,02,08,17,17.50
2021,07,02,08,18,17.50
2021,07,02,08,19,17.50
2021,07,02,08,20,17.60
2021,07,02,08,21,17.70
2021,07,02,08,22,17.70
2021,07,02,08,23,17.80
2021,07,02,08,24,17.80
2021,07,02,08,25,17.80
2021,07,02,08,26,17.70
2021,07,02,08,27,17.60
2021,07,02,08,28,17.60
2021,07,02,08,29,17.50
2021,07,02,08,30,17.50
2021,07,02,08,31,17.50
2021,07,02,08,32,17.60
2021,07,02,08,33,17.60
2021,07,02,08,34,17.60
2021,07,02,08,35,17.60
2021,07,02,08,36,17.60
2021,07,02,08,37,17.60
2021,07,02,08,38,17.60
2021,07,02,08,39,17.60
2021,07,02,08,40,17.60
2021,07,02,08,41,17.60
2021,07,02,08,42,17.60
2021,07,02,08,43,17.60
2021,07,02,08,44,17.60
2021,07,02,08,45,17.60
2021,07,02,08,46,17.70
2021,07,02,08,47,17.70
2021,07,02,08,48,17.70
2021,07,02,08,49,17.70
2021,07,02,08,50,17.80
2021,07,02,08,51,17.80
2021,07,02,08,52,17.80
2021,07,02,08,53,17.80
2021,07,02,08,54,17.90
2021,07,02,08,55,17.90
2021,07,02,08,56,17.90
2021,07,02,08,57,17.90
2021,07,02,08,58,17.90
2021,07,02,08,59,17.90
2021,07,02,09,00,18.00
2021,07,02,09,01,18.00
2021,07,02,09,02,18.00
2021,07,02,09,03,18.00
2021,07,02,09,04,18.00
2021,07,02,09,05,18.00
2021,07,02,09,06,18.10
2021,07,02,09,07,18.00
2021,07,02,09,08,18.00
2021,07,02,09,09,17.90
2021,07,02,09,10,17.90
2021,07,02,09,11,17.90
2021,07,02,09,12,17.90
2021,07,02,09,13,17.90
2021,07,02,09,14,17.90
2021,07,02,09,15,17.90
2021,07,02,09,16,17.90
2021,07,02,09,17,17.90
2021,07,02,09,18,18.00
2021,07,02,09,19,18.00
2021,07,02,09,20,18.10
2021,07,02,09,21,18.20
2021,07,02,09,22,18.20
2021,07,02,09,23,18.20
2021,07,02,09,24,18.30
2021,07,02,09,25,18.30
2021,07,02,09,26,18.40
2021,07,02,09,27,18.40
2021,07,02,09,28,18.40
2021,07,02,09,29,18.40
2021,07,02,09,30,18.50
2021,07,02,09,31,18.50
2021,07,02,09,32,18.50
2021,07,02,09,33,18.50
2021,07,02,09,34,18.60
2021,07,02,09,35,18.60
2021,07,02,09,36,18.70
2021,07,02,09,37,18.70
2021,07,02,09,38,18.60
2021,07,02,09,39,18.60
2021,07,02,09,40,18.60
2021,07,02,09,41,18.60
2021,07,02,09,42,18.70
2021,07,02,09,43,18.70
2021,07,02,09,44,18.70
2021,07,02,09,45,18.70
2021,07,02,09,46,18.80
2021,07,02,09,47,18.90
2021,07,02,09,48,19.00
2021,07,02,09,49,19.10
2021,07,02,09,50,19.10
2021,07,02,09,51,19.20
2021,07,02,09,52,19.20
2021,07,02,09,53,19.30
2021,07,02,09,54,19.30
2021,07,02,09,55,19.30
2021,07,02,09,56,19.40
2021,07,02,09,57,19.40
2021,07,02,09,58,19.50
2021,07,02,09,59,19.60
2021,07,02,10,00,19.70
2021,07,02,10,01,19.70
2021,07,02,10,02,19.80
2021,07,02,10,03,19.80
2021,07,02,10,04,19.90
2021,07,02,10,05,19.90
2021,07,02,10,06,19.90
2021,07,02,10,07,19.90
2021,07,02,10,08,19.90
2021,07,02,10,09,20.00
2021,07,02,10,10,20.00
2021,07,02,10,11,20.10
2021,07,02,10,12,20.20
2021,07,02,10,13,20.30
2021,07,02,10,14,20.30
2021,07,02,10,15,20.30
2021,07,02,10,16,20.30
2021,07,02,10,17,20.30
2021,07,02,10,18,20.30
2021,07,02,10,19,20.40
2021,07,02,10,20,20.50
2021,07,02,10,21,20.60
2021,07,02,10,22,20.60
2021,07,02,10,23,20.60
2021,07,02,10,24,20.70
2021,07,02,10,25,20.70
2021,07,02,10,26,20.70
2021,07,02,10,27,20.60
2021,07,02,10,28,20.60
2021,07,02,10,29,20.60
2021,07,02,10,30,20.60
2021,07,02,10,31,20.70
2021,07,02,10,32,20.70
2021,07,02,10,33,20.60
2021,07,02,10,34,20.60
2021,07,02,10,35,20.60
2021,07,02,10,36,20.70
2021,07,02,10,37,20.80
2021,07,02,10,38,20.80
2021,07,02,10,39,20.70
2021,07,02,10,40,20.70
2021,07,02,10,41,20.70
2021,07,02,10,42,20.60
2021,07,02,10,43,20.60
2021,07,02,10,44,20.60
2021,07,02,10,45,20.60
2021,07,02,10,46,20.70
2021,07,02,10,47,20.80
2021,07,02,10,48,20.80
2021,07,02,10,49,20.90
2021,07,02,10,50,20.90
2021,07,02,10,51,21.00
2021,07,02,10,52,21.00
2021,07,02,10,53,21.10
2021,07,02,10,54,21.10
2021,07,02,10,55,21.10
2021,07,02,10,56,21.20
2021,07,02,10,57,21.20
2021,07,02,10,58,21.30
2021,07,02,10,59,21.40
2021,07,02,11,00,21.50
2021,07,02,11,01,21.50
2021,07,02,11,02,21.60
2021,07,02,11,03,21.70
2021,07,02,11,04,21.70
2021,07,02,11,05,21.70
2021,07,02,11,06,21.70
2021,07,02,11,07,21.80
2021,07,02,11,08,21.90
2021,07,02,11,09,21.90
2021,07,02,11,10,21.80
2021,07,02,11,11,21.80
2021,07,02,11,12,21.70
2021,07,02,11,13,21.70
2021,07,02,11,14,21.60
2021,07,02,11,15,21.60
2021,07,02,11,16,21.60
2021,07,02,11,17,21.60
2021,07,02,11,18,21.60
2021,07,02,11,19,21.70
2021,07,02,11,20,21.70
2021,07,02,11,21,21.80
2021,07,02,11,22,21.80
2021,07,02,11,23,21.80
2021,07,02,11,24,21.80
2021,07,02,11,25,21.80
2021,07,02,11,26,21.80
2021,07,02,11,27,21.70
2021,07,02,11,28,21.70
2021,07,02,11,29,21.80
2021,07,02,11,30,21.80
2021,07,02,11,31,21.80
2021,07,02,11,32,21.80
2021,07,02,11,33,21.80
2021,07,02,11,34,21.80
2021,07,02,11,35,21.80
2021,07,02,11,36,21.80
2021,07,02,11,37,21.80
2021,07,02,11,38,21.70
2021,07,02,11,39,21.70
2021,07,02,11,40,21.70
2021,07,02,11,41,21.70
2021,07,02,11,42,21.80
2021,07,02,11,43,21.80
2021,07,02,11,44,21.80
2021,07,02,11,45,21.80
2021,07,02,11,46,21.80
2021,07,02,11,47,21.70
2021,07,02,11,48,21.80
2021,07,02,11,49,21.80
2021,07,02,11,50,21.80
2021,07,02,11,51,21.90
2021,07,02,11,52,21.90
2021,07,02,11,53,21.90
2021,07,02,11,54,22.00
2021,07,02,11,55,22.00
2021,07,02,11,56,22.00
2021,07,02,11,57,22.00
2021,07,02,11,58,22.10
2021,07,02,11,59,22.10
2021,07,02,12,00,22.20
2021,07,02,12,01,22.30
2021,07,02,12,02,22.30
2021,07,02,12,03,22.40
2021,07,02,12,04,22.40
2021,07,02,12,05,22.40
2021,07,02,12,06,22.40
2021,07,02,12,07,22.40
2021,07,02,12,08,22.30
2021,07,02,12,09,22.30
2021,07,02,12,10,22.20
2021,07,02,12,11,22.10
2021,07,02,12,12,22.10
2021,07,02,12,13,22.00
2021,07,02,12,14,22.10
2021,07,02,12,15,22.20
2021,07,02,12,16,22.20
2021,07,02,12,17,22.20
2021,07,02,12,18,22.20
2021,07,02,12,19,22.30
2021,07,02,12,20,22.30
2021,07,02,12,21,22.30
2021,07,02,12,22,22.40
2021,07,02,12,23,22.60
2021,07,02,12,24,22.70
2021,07,02,12,25,22.70
2021,07,02,12,26,22.70
2021,07,02,12,27,22.60
2021,07,02,12,28,22.60
2021,07,02,12,29,22.60
2021,07,02,12,30,22.70
2021,07,02,12,31,22.80
2021,07,02,12,32,22.80
2021,07,02,12,33,22.90
2021,07,02,12,34,22.90
2021,07,02,12,35,22.80
2021,07,02,12,36,22.80
2021,07,02,12,37,22.80
2021,07,02,12,38,22.80
2021,07,02,12,39,22.90
2021,07,02,12,40,23.00
2021,07,02,12,41,23.10
2021,07,02,12,42,23.10
2021,07,02,12,43,23.10
2021,07,02,12,44,23.20
2021,07,02,12,45,23.20
2021,07,02,12,46,23.20
2021,07,02,12,47,23.20
2021,07,02,12,48,23.20
2021,07,02,12,49,23.20
2021,07,02,12,50,23.10
2021,07,02,12,51,23.00
2021,07,02,12,52,23.00
2021,07,02,12,53,22.90
2021,07,02,12,54,22.90
2021,07,02,12,55,23.00
2021,07,02,12,56,23.10
2021,07,02,12,57,23.20
2021,07,02,12,58,23.40
2021,07,02,12,59,23.60
2021,07,02,13,00,23.80
2021,07,02,13,01,23.90
2021,07,02,13,02,23.90
2021,07,02,13,03,23.90
2021,07,02,13,04,23.90
2021,07,02,13,05,23.80
2021,07,02,13,06,23.80
2021,07,02,13,07,23.80
2021,07,02,13,08,23.80
2021,07,02,13,09,23.80
2021,07,02,13,10,23.80
2021,07,02,13,11,23.70
2021,07,02,13,12,23.70
2021,07,02,13,13,23.70
2021,07,02,13,14,23.70
2021,07,02,13,15,23.70
2021,07,02,13,16,23.70
2021,07,02,13,17,23.70
2021,07,02,13,18,23.80
2021,07,02,13,19,23.80
2021,07,02,13,20,23.80
2021,07,02,13,21,23.80
2021,07,02,13,22,23.80
2021,07,02,13,23,23.90
2021,07,02,13,24,23.90
2021,07,02,13,25,24.00
2021,07,02,13,26,24.10
2021,07,02,13,27,24.10
2021,07,02,13,28,24.20
2021,07,02,13,29,24.30
2021,07,02,13,30,24.30
2021,07,02,13,31,24.40
2021,07,02,13,32,24.40
2021,07,02,13,33,24.40
2021,07,02,13,34,24.40
2021,07,02,13,35,24.40
2021,07,02,13,36,24.40
2021,07,02,13,37,24.50
2021,07,02,13,38,24.60
2021,07,02,13,39,24.60
2021,07,02,13,40,24.60
2021,07,02,13,41,24.60
2021,07,02,13,42,24.60
2021,07,02,13,43,24.60
2021,07,02,13,44,24.70
2021,07,02,13,45,24.80
2021,07,02,13,46,24.80
2021,07,02,13,47,24.80
2021,07,02,13,48,24.90
2021,07,02,13,49,24.90
2021,07,02,13,50,25.00
2021,07,02,13,51,24.90
2021,07,02,13,52,24.80
2021,07,02,13,53,24.80
2021,07,02,13,54,24.70
2021,07,02,13,55,24.70
2021,07,02,13,56,24.70
2021,07,02,13,57,24.70
2021,07,02,13,58,24.80
2021,07,02,13,59,24.80
2021,07,02,14,00,24.90
2021,07,02,14,01,25.00
2021,07,02,14,02,25.00
2021,07,02,14,03,25.00
2021,07,02,14,04,25.10
2021,07,02,14,05,25.20
2021,07,02,14,06,25.20
2021,07,02,14,07,25.30
2021,07,02,14,08,25.40
2021,07,02,14,09,25.40
2021,07,02,14,10,25.40
2021,07,02,14,11,25.40
2021,07,02,14,12,25.40
2021,07,02,14,13,25.40
2021,07,02,14,14,25.50
2021,07,02,14,15,25.50
2021,07,02,14,16,25.50
2021,07,02,14,17,25.50
2021,07,02,14,18,25.50
2021,07,02,14,19,25.50
2021,07,02,14,20,25.40
2021,07,02,14,21,25.30
2021,07,02,14,22,25.30
2021,07,02,14,23,25.30
2021,07,02,14,24,25.40
2021,07,02,14,25,25.50
2021,07,02,14,26,25.50
2021,07,02,14,27,25.50
2021,07,02,14,28,25.50
2021,07,02,14,29,25.50
2021,07,02,14,30,25.50
2021,07,02,14,31,25.50
2021,07,02,14,32,25.60
2021,07,02,14,33,25.60
2021,07,02,14,34,25.60
2021,07,02,14,35,25.60
2021,07,02,14,36,25.60
2021,07,02,14,37,25.60
2021,07,02,14,38,25.60
2021,07,02,14,39,25.70
2021,07,02,14,40,25.80
2021,07,02,14,41,25.90
2021,07,02,14,42,25.90
2021,07,02,14,43,25.80
2021,07,02,14,44,25.90
2021,07,02,14,45,25.90
2021,07,02,14,46,25.90
2021,07,02,14,47,25.90
2021,07,02,14,48,26.00
2021,07,02,14,49,26.00
2021,07,02,14,50,26.00
2021,07,02,14,51,25.90
2021,07,02,14,52,25.80
2021,07,02,14,53,25.50
2021,07,02,14,54,25.40
2021,07,02,14,55,25.40
2021,07,02,14,56,25.30
2021,07,02,14,57,25.30
2021,07,02,14,58,25.30
2021,07,02,14,59,25.30
2021,07,02,15,00,25.40
2021,07,02,15,01,25.40
2021,07,02,15,02,25.50
2021,07,02,15,03,25.50
2021,07,02,15,04,25.60
2021,07,02,15,05,25.60
2021,07,02,15,06,25.60
2021,07,02,15,07,25.60
2021,07,02,15,08,25.70
2021,07,02,15,09,25.70
2021,07,02,15,10,25.80
2021,07,02,15,11,25.80
2021,07,02,15,12,25.80
2021,07,02,15,13,25.80
2021,07,02,15,14,25.90
2021,07,02,15,15,25.90
2021,07,02,15,16,25.90
2021,07,02,15,17,25.80
2021,07,02,15,18,25.80
2021,07,02,15,19,25.80
2021,07,02,15,20,25.70
2021,07,02,15,21,25.70
2021,07,02,15,22,25.80
2021,07,02,15,23,25.90
2021,07,02,15,24,25.90
2021,07,02,15,25,25.90
2021,07,02,15,26,25.90
2021,07,02,15,27,25.90
2021,07,02,15,28,25.90
2021,07,02,15,29,25.90
2021,07,02,15,30,26.00
2021,07,02,15,31,26.10
2021,07,02,15,32,26.20
2021,07,02,15,33,26.20
2021,07,02,15,34,26.10
2021,07,02,15,35,26.10
2021,07,02,15,36,26.20
2021,07,02,15,37,26.20
2021,07,02,15,38,26.30
2021,07,02,15,39,26.30
2021,07,02,15,40,26.40
2021,07,02,15,41,26.50
2021,07,02,15,42,26.40
2021,07,02,15,43,26.30
2021,07,02,15,44,26.30
2021,07,02,15,45,26.20
2021,07,02,15,46,26.10
2021,07,02,15,47,26.10
2021,07,02,15,48,26.20
2021,07,02,15,49,26.20
2021,07,02,15,50,26.30
2021,07,02,15,51,26.30
2021,07,02,15,52,26.40
2021,07,02,15,53,26.40
2021,07,02,15,54,26.50
2021,07,02,15,55,26.50
2021,07,02,15,56,26.60
2021,07,02,15,57,26.60
2021,07,02,15,58,26.60
2021,07,02,15,59,26.70
2021,07,02,16,00,26.70
2021,07,02,16,01,26.80
2021,07,02,16,02,26.80
2021,07,02,16,03,26.70
2021,07,02,16,04,26.70
2021,07,02,16,05,26.70
2021,07,02,16,06,26.70
2021,07,02,16,07,26.70
2021,07,02,16,08,26.50
2021,07,02,16,09,26.30
2021,07,02,16,10,26.10
2021,07,02,16,11,25.90
2021,07,02,16,12,25.80
2021,07,02,16,13,25.70
2021,07,02,16,14,25.70
2021,07,02,16,15,25.70
2021,07,02,16,16,25.70
2021,07,02,16,17,25.70
2021,07,02,16,18,25.70
2021,07,02,16,19,25.80
2021,07,02,16,20,25.90
2021,07,02,16,21,25.90
2021,07,02,16,22,25.90
2021,07,02,16,23,25.80
2021,07,02,16,24,25.80
2021,07,02,16,25,25.80
2021,07,02,16,26,25.70
2021,07,02,16,27,25.70
2021,07,02,16,28,25.70
2021,07,02,16,29,25.70
2021,07,02,16,30,25.70
2021,07,02,16,31,25.70
2021,07,02,16,32,25.80
2021,07,02,16,33,25.80
2021,07,02,16,34,25.80
2021,07,02,16,35,25.70
2021,07,02,16,36,25.60
2021,07,02,16,37,25.50
2021,07,02,16,38,25.40
2021,07,02,16,39,25.40
2021,07,02,16,40,25.40
2021,07,02,16,41,25.40
2021,07,02,16,42,25.40
2021,07,02,16,43,25.50
2021,07,02,16,44,25.50
2021,07,02,16,45,25.50
2021,07,02,16,46,25.50
2021,07,02,16,47,25.60
2021,07,02,16,48,25.50
2021,07,02,16,49,25.40
2021,07,02,16,50,25.40
2021,07,02,16,51,25.40
2021,07,02,16,52,25.40
2021,07,02,16,53,25.40
2021,07,02,16,54,25.40
2021,07,02,16,55,25.40
2021,07,02,16,56,25.40
2021,07,02,16,57,25.40
2021,07,02,16,58,25.30
2021,07,02,16,59,25.10
2021,07,02,17,00,25.00
2021,07,02,17,01,24.90
2021,07,02,17,02,24.80
2021,07,02,17,03,24.80
2021,07,02,17,04,24.70
2021,07,02,17,05,24.50
2021,07,02,17,06,24.40
2021,07,02,17,07,24.30
2021,07,02,17,08,24.20
2021,07,02,17,09,24.10
2021,07,02,17,10,24.10
2021,07,02,17,11,24.00
2021,07,02,17,12,23.90
2021,07,02,17,13,23.90
2021,07,02,17,14,23.90
2021,07,02,17,15,23.80
2021,07,02,17,16,23.80
2021,07,02,17,17,23.80
2021,07,02,17,18,23.80
2021,07,02,17,19,23.80